Volver al catálogo

SHIYAN 12 01

SY-12 01

ActivoCienciaGEO
NORAD 50321·PAYLOAD·🇨🇳 China

Lanzado Dec 23, 2021 desde Wenchang Space Launch Site

Loading…

TLE

ActualizadoSource: Space-Track

Época: Sep 14, 2026, 17:25 UTC

1 50321U 21129A   26257.72587404  .00000125  00000-0  00000+0 0  9992
2 50321   3.8994  78.6452 0001608 173.6971  43.9705  1.00476673 17399

Sigue SHIYAN 12 01 en tiempo real con AllMySat

Download on the App Store